Location: Kissimmee Park Observatory
(28.2088°N, 81.3686°W)
Time: 05:40:54
(UTC-05:00)

Envisat - Visible Passes

Search period start: 26 January 2022 00:00
Search period end: 05 February 2022 00:00
Orbit: 764 x 766 km, 98.2° (Epoch: 25 January)

Date Brightness Start Highest point End Pass type
(mag) Time Alt. Az. Time Alt. Az. Time Alt. Az.
26 Jan 4.8 04:27:15 10° NE 04:31:34 28° E 04:35:51 10° SSE visible
26 Jan 4.0 06:06:22 10° NNW 06:10:22 24° WNW 06:14:23 10° WSW visible
27 Jan 6.0 03:53:38 10° E 03:54:28 10° E 03:55:19 10° ESE visible
27 Jan 2.9 05:28:44 10° N 05:33:43 60° WNW 05:38:41 10° SSW visible
28 Jan 3.6 04:51:56 10° NNE 04:56:54 53° E 05:01:50 10° S visible
28 Jan 4.6 06:33:12 10° NW 06:35:23 13° WNW 06:37:34 10° W visible
29 Jan 5.3 04:16:08 10° NE 04:19:55 21° E 04:23:41 10° SE visible
29 Jan 3.6 05:54:25 10° N 05:58:51 31° WNW 06:03:17 10° SW visible
30 Jan 2.8 05:17:04 10° N 05:22:10 80° WNW 05:27:13 10° SSW visible
31 Jan 4.2 04:40:32 10° NNE 04:45:17 40° E 04:50:01 10° SSE visible
31 Jan 4.4 06:20:43 10° NNW 06:23:54 17° WNW 06:27:07 10° WSW visible
01 Feb 5.6 04:05:14 10° ENE 04:08:15 16° E 04:11:16 10° SE visible
01 Feb 3.3 05:42:35 10° N 05:47:20 41° WNW 05:52:03 10° SW visible
02 Feb 3.0 05:05:29 10° NNE 05:10:35 78° ESE 05:15:39 10° S visible
03 Feb 4.7 04:29:13 10° NE 04:33:39 30° E 04:38:03 10° SSE visible
03 Feb 4.1 06:08:34 10° NNW 06:12:25 22° WNW 06:16:16 10° WSW visible
04 Feb 5.9 03:54:55 10° ENE 03:56:34 11° E 03:58:14 10° ESE visible
04 Feb 3.0 05:30:50 10° N 05:35:47 55° WNW 05:40:43 10° SSW visible
